951  
ASUS43 KBIS 221010  
RWRND  
NORTH DAKOTA REGIONAL WEATHER ROUNDUP  
NATIONAL WEATHER SERVICE EASTERN NORTH DAKOTA/GRAND FORKS ND  
500 AM CDT TUE MAY 22 2018  
 
NOTE: "FAIR" INDICATES FEW OR NO CLOUDS BELOW 12,000 FEET WITH NO  
SIGNIFICANT WEATHER AND/OR S TO VISIBILITY
.  
 
NDZ001>003-009>011-017-221100-   
..NORTHWEST NORTH DAKOTA
 
 
 
CITY SKY/WX TMP DP RH WIND PRES REMARKS
 
WILLISTON FAIR 49 44 83 CALM 29.88S  
MINOT FAIR 57 48 72 S7 29.89R  
MINOT AFB FAIR 54 48 80 S6 29.87S  

 
 
NDZ018>021-031>035-040>046-221100-   
..SOUTHWEST NORTH DAKOTA
 
 
 
CITY SKY/WX TMP DP RH WIND PRES REMARKS
 
BISMARCK FAIR 50 49 96 E6 29.93S  
DICKINSON FAIR 51 32 48 S9 29.89F  
GARRISON N/A 46 44 93 CALM 29.91S  
HETTINGER FAIR 49 41 74 CALM 29.93S  

 
 
NDZ004>008-012>016-024-026-027-054-221100-   
..NORTHEAST NORTH DAKOTA
 
 
 
CITY SKY/WX TMP DP RH WIND PRES REMARKS
 
GRAND FORKS FAIR 51 51 100 S6 29.95S  
GRAND FORKS AF FAIR 51 51 100 S7 29.95S  
DEVILS LAKE FAIR 56 53 90 S6 29.95S  

 
 
NDZ022-023-025-028>030-036>039-047>053-221100-   
..SOUTHEAST NORTH DAKOTA
 
 
 
CITY SKY/WX TMP DP RH WIND PRES REMARKS
 
JAMESTOWN FAIR 52 51 97 S5 29.95S FOG  
FARGO FAIR 53 52 96 SE6 29.98R  
WAHPETON CLOUDY 55 52 88 S6 30.00R  

 
 
 
CLICK HERE TO GO TO PREVIOUS BULLETINS.

The Nexlab ND Page Main Text Page